TimeMDT,TemperatureF,Dew PointF,Humidity,Sea Level PressureIn,VisibilityMPH,Wind Direction,Wind SpeedMPH,Gust SpeedMPH,PrecipitationIn,Events,Conditions,WindDirDegrees,DateUTC
12:15 AM,73.4,37.4,27,30.13,10.0,SSE,3.5,-,N/A,,Clear,160,2013-08-20 06:15:00
12:35 AM,73.4,37.4,27,30.13,10.0,SSE,3.5,-,N/A,,Clear,160,2013-08-20 06:35:00
12:55 AM,73.4,37.4,27,30.13,10.0,SSE,4.6,-,N/A,,Clear,160,2013-08-20 06:55:00
1:15 AM,71.6,39.2,31,30.13,10.0,SSE,4.6,-,N/A,,Clear,160,2013-08-20 07:15:00
1:34 AM,71.6,39.2,31,30.13,10.0,SSE,4.6,-,N/A,,Clear,160,2013-08-20 07:34:00
1:55 AM,71.6,39.2,31,30.11,10.0,South,4.6,-,N/A,,Clear,180,2013-08-20 07:55:00
2:15 AM,71.6,39.2,31,30.11,10.0,South,4.6,-,N/A,,Clear,170,2013-08-20 08:15:00
2:35 AM,69.8,41.0,35,30.11,10.0,SSW,4.6,-,N/A,,Clear,210,2013-08-20 08:35:00
2:55 AM,68.0,41.0,37,30.11,10.0,WSW,5.8,-,N/A,,Clear,240,2013-08-20 08:55:00
3:15 AM,66.2,39.2,37,30.10,10.0,WSW,6.9,-,N/A,,Clear,250,2013-08-20 09:15:00
3:34 AM,68.0,37.4,33,30.10,10.0,West,5.8,-,N/A,,Clear,270,2013-08-20 09:34:00
3:55 AM,71.6,35.6,27,30.10,10.0,SW,3.5,-,N/A,,Clear,220,2013-08-20 09:55:00
4:15 AM,71.6,35.6,27,30.10,10.0,Calm,Calm,-,N/A,,Clear,0,2013-08-20 10:15:00
4:35 AM,68.0,37.4,33,30.10,10.0,Calm,Calm,-,N/A,,Clear,0,2013-08-20 10:35:00
4:55 AM,69.8,37.4,31,30.10,10.0,Calm,Calm,-,N/A,,Clear,0,2013-08-20 10:55:00
5:14 AM,69.8,37.4,31,30.10,10.0,Calm,Calm,-,N/A,,Clear,0,2013-08-20 11:14:00
5:35 AM,68.0,37.4,33,30.11,10.0,West,3.5,-,N/A,,Clear,270,2013-08-20 11:35:00
5:45 AM,68.0,35.6,30,30.10,20.0,Calm,Calm,-,N/A,,Scattered Clouds,0,2013-08-20 11:45:00
5:55 AM,68.0,35.6,30,30.11,10.0,Calm,Calm,-,N/A,,Clear,0,2013-08-20 11:55:00
6:45 AM,68.0,37.4,33,30.11,40.0,WSW,3.5,-,N/A,,Scattered Clouds,250,2013-08-20 12:45:00
7:50 AM,77.0,39.2,26,30.13,40.0,Calm,Calm,-,N/A,,Partly Cloudy,0,2013-08-20 13:50:00
8:45 AM,77.0,41.0,28,30.13,40.0,Calm,Calm,-,N/A,,Partly Cloudy,0,2013-08-20 14:45:00
9:53 AM,82.4,41.0,23,30.13,40.0,ESE,4.6,-,N/A,,Partly Cloudy,110,2013-08-20 15:53:00
10:45 AM,87.8,35.6,16,30.13,50.0,SE,4.6,-,N/A,,Scattered Clouds,130,2013-08-20 16:45:00
11:45 AM,93.2,30.2,11,30.11,50.0,Variable,3.5,-,N/A,,Scattered Clouds,0,2013-08-20 17:45:00
1:50 PM,95.0,17.6,6,30.08,50.0,East,4.6,-,N/A,,Mostly Cloudy,100,2013-08-20 19:50:00
2:27 PM,95.0,17.6,6,30.08,50.0,East,9.2,-,N/A,,Mostly Cloudy,100,2013-08-20 20:27:00
2:48 PM,96.8,17.6,6,30.07,50.0,ESE,5.8,-,N/A,,Mostly Cloudy,110,2013-08-20 20:48:00
3:53 PM,77.0,15.8,10,30.05,35.0,East,5.8,-,N/A,,Mostly Cloudy,100,2013-08-20 21:53:00
4:52 PM,93.2,17.6,6,30.05,35.0,Variable,4.6,-,N/A,,Mostly Cloudy,0,2013-08-20 22:52:00
5:47 PM,91.4,23.0,8,30.05,40.0,Calm,Calm,-,N/A,,Mostly Cloudy,0,2013-08-20 23:47:00
6:55 PM,87.8,28.4,12,30.06,40.0,NNW,18.4,-,N/A,,Overcast,340,2013-08-21 00:55:00
7:53 PM,86.0,30.2,13,30.08,25.0,North,20.7,27.6,N/A,,Overcast,360,2013-08-21 01:53:00
8:49 PM,82.4,35.6,19,30.11,20.0,NNE,9.2,17.3,N/A,,Overcast,20,2013-08-21 02:49:00
9:47 PM,80.6,35.6,20,30.12,20.0,NNW,10.4,-,N/A,,Mostly Cloudy,340,2013-08-21 03:47:00
11:15 PM,77.0,35.6,22,30.12,10.0,WNW,10.4,-,N/A,,Clear,300,2013-08-21 05:15:00
11:34 PM,77.0,33.8,21,30.12,10.0,WNW,11.5,-,N/A,,Clear,290,2013-08-21 05:34:00
11:54 PM,77.0,33.8,21,30.12,10.0,WNW,11.5,-,N/A,,Clear,300,2013-08-21 05:54:00